Weather History for Benson, United Kingdom

Change the Weather History Date:

Friday, February 15, 2013

  Actual Average Record
Temperature  
Mean Temperature 38 °F -  
Max Temperature 49 °F 47 °F 55 °F (1998)
Min Temperature 28 °F 34 °F 21 °F (2002)
Degree Days  
Heating Degree Days 26    
Moisture  
Dew Point 35 °F    
Average Humidity 82    
Maximum Humidity 100    
Minimum Humidity 45    
Precipitation  
Precipitation 0.01 in - - ()
Sea Level Pressure  
Sea Level Pressure 30.12 in    
Wind  
Wind Speed 3 mph ()    
Max Wind Speed 10 mph    
Max Gust Speed -    
Visibility 9.0 miles    
Events      
Averages and records for this station are not official NWS values.
T = Trace of Precipitation, MM = Missing Value Source: Averaged Metar Reports

Daily Weather History Graph

Daily Weather History Graph

Search for Another Location

Airport:

Trip Planner

Search our weather history database for the weather conditions in past years. The results will help you decide how hot, cold, wet, or windy it might be!

Date:

Astronomy

Feb. 15, 2013 Rise Set
Actual Time 7:18 AM GMT 5:19 PM GMT
Civil Twilight 6:43 AM GMT 5:54 PM GMT
Nautical Twilight 6:04 AM GMT 6:33 PM GMT
Astronomical Twilight 5:25 AM GMT 7:12 PM GMT
Moon 9:01 AM GMT (2/15) 11:55 PM GMT (2/15)
Length of Visible Light 11h 10m
Length of Day
10h 01m
Waxing Crescent, 28% of the Moon is Illuminated
Feb 15
Waxing Crescent
Feb 17
First Quarter
Feb 25
Full
Mar 4
Last Quarter
Mar 11
New

Hourly Weather History & Observations

Time (GMT) Temp. Windchill Dew Point Humidity Pressure Visibility Wind Dir Wind Speed Gust Speed Precip Events Conditions
12:50 AM 32.0 °F - 28.4 °F 87% 30.01 in - Calm Calm - N/A   Clear
1:50 AM 32.0 °F - 32.0 °F 100% 30.01 in - ENE 1.2 mph - N/A   Clear
2:50 AM 28 °F - 26 °F 90% 30.05 in 11 mi East 2.3 mph - -  
2:53 AM 30.2 °F - 28.4 °F 93% 30.04 in - East 2.3 mph - N/A   Clear
3:50 AM 32.0 °F - 32.0 °F 100% 30.04 in 6.2 mi NW 2.3 mph - N/A   Mostly Cloudy
4:50 AM 32.0 °F - 30.2 °F 93% 30.04 in 6.2 mi NNE 1.2 mph - N/A   Mostly Cloudy
5:50 AM 35 °F - 34 °F 96% 30.08 in 11 mi East 2.3 mph - -   Mostly Cloudy
5:50 AM 35.6 °F - 33.8 °F 93% 30.06 in - East 2.3 mph - N/A   Clear
6:50 AM 30.2 °F - 30.2 °F 100% 30.06 in - ENE 2.3 mph - N/A   Clear
7:52 AM 33.8 °F - 33.8 °F 100% 30.09 in - West 2.3 mph - N/A   Clear
8:50 AM 35 °F - 34 °F 96% 30.13 in 12 mi NE 2.3 mph - -   Mostly Cloudy
8:50 AM 35.6 °F - 33.8 °F 93% 30.09 in - NE 2.3 mph - N/A   Clear
9:50 AM 41.0 °F 39.0 °F 37.4 °F 87% 30.12 in - WNW 3.5 mph - N/A   Clear
10:50 AM 44.6 °F 40.7 °F 37.4 °F 76% 30.12 in - WNW 6.9 mph - N/A   Clear
11:50 AM 46 °F - 38 °F 64% 30.15 in 16 mi WNW 8.1 mph - -   Scattered Clouds
11:50 AM 46.4 °F 42.4 °F 37.4 °F 71% 30.12 in 6.2 mi WNW 8.1 mph - N/A   Partly Cloudy
12:50 PM 48.2 °F - 37.4 °F 66% 30.12 in 6.2 mi West 9.2 mph - N/A   Scattered Clouds
1:50 PM 48.2 °F - 37.4 °F 66% 30.12 in 6.2 mi WSW 10.4 mph - N/A   Scattered Clouds
2:50 PM 48 °F - 33 °F 45% 30.15 in 19 mi West 8.1 mph - -   Mostly Cloudy
2:50 PM 48.2 °F - 33.8 °F 58% 30.12 in 6.2 mi West 8.1 mph - N/A   Mostly Cloudy
3:50 PM 48.2 °F - 33.8 °F 58% 30.12 in 6.2 mi WNW 5.8 mph - N/A   Mostly Cloudy
4:50 PM 48.2 °F - 35.6 °F 62% 30.15 in 6.2 mi WNW 3.5 mph - N/A   Mostly Cloudy
5:50 PM 46 °F - 36 °F 58% 30.18 in 16 mi WNW 2.3 mph - -   Overcast
5:50 PM 46.4 °F - 35.6 °F 66% 30.15 in 6.2 mi WNW 2.3 mph - N/A   Overcast
6:50 PM 41.0 °F - 35.6 °F 81% 30.18 in 6.2 mi SSW 2.3 mph - N/A   Overcast
7:50 PM 41.0 °F 38.0 °F 37.4 °F 87% 30.18 in 6.2 mi South 4.6 mph - N/A   Mostly Cloudy
8:50 PM 40 °F - 37 °F 83% 30.21 in 16 mi SSE 2.3 mph - -   Overcast
8:50 PM 41.0 °F - 37.4 °F 87% 30.18 in 6.2 mi SSE 2.3 mph - N/A   Overcast
9:50 PM 39.2 °F 37.0 °F 35.6 °F 87% 30.18 in 6.2 mi South 3.5 mph - N/A   Overcast
10:50 PM 39.2 °F - 37.4 °F 93% 30.18 in 6.2 mi SSE 1.2 mph - N/A   Overcast
11:50 PM 38 °F - 37 °F 93% 30.22 in 14 mi ESE 1.2 mph - -   Overcast
11:50 PM 39.2 °F - 37.4 °F 93% 30.21 in 6.2 mi ESE 1.2 mph - N/A   Overcast